Temperature
20 21 21 21 21 21 20 20 20 20 20 20 20 20 19 19 19 19 19 19 19 19 18 18 18 18 18 18 18 18 18 18 18 18 18 17 17 17 17 18 18 17 17
21 21 21 21 21 20 20 20 20 20 20 20 20 19 19 19 19 19 19 19 19 19 19 19 19 18 18 18 18 18 18 18 18 17 17 17 17 17 17 17 18 17 17
21 21 21 21 21 20 20 20 20 20 20 19 19 19 19 19 19 19 19 19 19 19 19 19 19 19 19 18 18 18 18 18 17 17 17 17 17 17 17 17 17 17 17
22 21 21 21 21 20 20 20 20 20 19 19 19 19 19 19 19 19 19 19 19 19 19 19 19 19 19 18 18 18 18 18 17 17 17 17 17 17 17 17 17 17 17
21 21 21 21 20 20 20 20 20 20 19 19 19 19 19 19 19 19 19 19 19 19 19 19 19 19 19 18 18 18 18 17 17 17 17 17 18 18 18 18 17 17 17
21 21 21 21 20 20 20 20 20 20 19 19 19 19 19 19 19 19 19 19 19 19 19 19 19 19 19 19 18 18 17 17 17 17 17 18 18 18 18 18 17 17 17
21 21 21 20 20 20 20 20 20 20 19 19 19 19 19 19 19 19 19 19 19 19 19 19 19 19 19 19 18 18 17 17 17 17 17 18 18 18 18 18 18 17 17
21 21 20 20 20 20 20 20 20 20 19 19 19 19 19 19 19 19 19 19 19 19 19 19 19 19 19 19 18 18 18 18 18 17 17 18 18 18 18 18 18 18 17
21 21 21 20 20 20 20 20 20 20 19 19 19 19 19 19 19 19 19 19 19 19 19 19 19 19 19 19 19 18 18 18 18 18 17 18 18 18 18 18 18 18 17
21 21 21 20 20 20 20 20 20 20 19 19 19 19 19 19 19 18 18 18 18 19 19 19 19 19 19 19 19 18 18 18 18 18 18 17 18 18 18 18 18 18 18
20 20 20 20 20 20 20 20 20 19 19 19 19 19 19 18 18 18 18 18 18 18 18 18 18 19 19 19 19 18 18 18 18 18 18 18 18 18 18 18 18 18 18
20 20 20 20 20 20 19 19 19 19 19 19 19 18 18 18 18 18 18 18 18 18 18 18 18 18 18 18 18 18 18 18 18 18 18 18 18 18 18 18 18 18 18
20 20 20 20 20 19 19 19 19 19 18 18 18 18 18 18 18 18 18 18 18 18 18 18 18 18 18 18 18 18 18 18 18 18 18 18 17 17 18 18 18 18 18
20 19 19 19 19 19 19 19 19 19 18 18 18 18 18 18 18 18 18 18 17 17 17 17 17 17 18 18 18 18 18 18 18 18 18 17 17 17 17 18 18 18 18
19 19 19 19 19 19 18 18 19 18 18 18 18 18 18 18 18 18 18 17 17 17 17 17 17 17 17 17 17 17 17 17 17 18 17 17 17 17 17 17 17 18 18
19 19 19 19 19 19 18 18 18 18 18 18 18 18 18 18 18 17 17 17 17 17 17 17 17 17 17 17 17 17 17 17 17 17 17 17 17 17 17 17 17 17 17
19 19 19 19 19 18 18 18 18 18 18 18 18 18 18 18 17 17 17 17 17 16 16 16 16 16 16 16 16 17 17 17 17 17 17 17 17 17 17 17 17 17 17
19 19 19 18 18 18 18 18 18 18 18 18 18 18 18 17 17 17 17 17 16 16 16 16 16 16 16 16 16 16 16 16 17 17 17 17 17 17 17 17 17 17 17
19 19 19 18 18 18 18 18 18 18 17 17 17 17 17 17 17 17 17 16 16 16 16 16 16 16 16 16 16 16 16 16 16 16 16 16 16 16 16 17 16 16 16
19 19 19 18 18 18 18 18 18 17 17 17 17 17 17 17 17 16 16 16 16 16 15 15 15 15 15 15 15 16 16 16 16 16 16 16 16 16 16 16 16 16 16
19 19 18 18 18 18 18 18 18 17 17 17 17 17 16 16 16 16 16 16 15 15 15 15 15 15 15 15 15 15 16 16 16 16 16 16 16 16 16 16 16 16 16
18 18 18 18 18 18 18 18 17 17 17 17 16 16 16 16 16 15 15 15 15 15 15 14 14 14 14 14 14 14 14 15 16 16 16 16 16 16 16 16 16 16 16
18 18 18 18 18 18 18 17 17 17 17 16 16 16 16 16 15 15 15 15 15 14 14 14 14 14 14 14 13 13 13 14 14 15 15 15 15 15 15 16 16 16 16
18 18 18 18 18 18 17 17 17 17 17 16 16 16 15 15 15 15 15 14 14 14 14 13 13 13 13 13 13 13 13 13 13 14 14 15 15 15 15 15 15 15 15
19 18 18 18 18 17 17 17 17 16 16 16 15 15 15 15 15 14 14 14 14 13 13 13 13 13 13 12 12 13 13 13 13 13 13 14 14 14 15 15 15 15 15
19 18 18 18 18 17 17 17 16 16 16 15 15 15 15 14 14 14 14 13 13 13 13 12 12 12 12 12 12 12 12 12 12 12 12 13 13 14 14 14 14 15 15
Wind_Speed
10 14 21 22 22 22 21 21 21 21 21 21 21 21 21 20 20 19 18 17 16 15 14 14 13 13 13 14 14 14 15 15 15 16 16 16 15 16 18 18 18 17 19
14 18 21 22 22 22 22 21 20 20 20 20 20 20 19 19 18 17 17 16 15 14 14 13 13 13 13 13 13 13 13 14 14 15 15 15 15 15 17 17 17 16 18
17 18 21 22 22 22 22 21 20 20 19 19 19 19 18 18 17 16 16 15 15 14 13 13 12 12 12 12 12 12 11 12 13 14 14 13 13 15 17 18 18 18 18
17 18 19 22 22 22 22 21 20 20 19 18 18 18 17 17 16 16 15 14 14 13 13 12 12 11 11 11 10 10 9 9 10 11 10 10 12 16 18 18 17 17 17
14 17 21 23 22 22 21 21 20 19 19 18 17 17 16 16 15 15 14 14 13 13 12 11 11 10 10 9 9 8 7 6 6 7 10 11 13 16 17 17 16 16 16
11 16 21 22 22 21 21 20 20 19 18 17 17 16 16 15 15 14 13 13 13 12 11 10 10 9 8 8 7 6 5 4 5 8 12 13 14 16 16 16 16 16 15
12 14 19 22 22 21 20 20 19 18 18 17 16 15 15 14 14 13 13 12 12 11 11 10 9 8 7 6 5 4 4 4 6 9 12 13 15 16 16 16 15 15 15
14 13 18 21 21 20 20 19 19 18 17 16 15 14 14 13 13 12 12 11 11 11 10 9 8 7 6 5 3 2 3 3 5 7 9 12 16 17 16 16 15 15 15
13 12 13 17 19 19 19 18 18 17 16 15 15 14 13 12 11 11 11 11 10 10 10 9 8 7 6 4 3 1 1 2 4 5 9 12 16 17 17 16 15 15 15
10 9 10 13 14 15 16 17 17 16 15 14 13 12 11 11 10 10 10 9 9 10 9 9 8 7 6 5 4 3 1 1 2 4 8 11 16 18 18 17 16 16 15
10 8 8 9 11 13 13 15 15 14 14 13 11 11 10 8 8 9 9 9 9 9 9 9 8 7 6 5 5 5 3 2 2 4 8 12 17 18 18 18 17 17 16
11 9 8 8 9 11 11 11 10 10 10 10 9 8 7 6 7 8 9 10 10 9 9 8 8 7 6 5 5 5 4 4 3 5 9 13 17 19 19 19 18 18 18
12 10 8 8 9 9 7 9 7 7 7 7 8 8 7 5 4 5 5 6 7 7 6 6 6 6 6 6 6 6 5 5 4 5 8 13 17 19 20 20 20 20 19
10 9 9 8 7 7 8 6 6 6 5 5 7 8 7 4 3 4 3 3 3 4 4 5 5 5 5 6 6 6 6 5 6 6 8 13 17 20 21 20 21 21 21
8 8 8 8 8 6 6 5 5 5 6 7 7 7 8 5 3 3 3 3 2 3 3 3 3 3 3 3 4 5 5 5 6 6 7 12 17 21 22 21 22 22 22
8 9 8 9 9 7 5 4 4 5 6 7 7 8 8 7 5 4 3 2 2 2 2 2 2 2 2 2 3 4 5 5 5 7 8 11 17 21 22 22 23 23 23
9 8 8 8 8 8 6 5 6 5 6 5 6 8 8 7 6 5 3 2 1 1 1 1 0 0 0 1 2 3 3 4 5 7 9 11 15 20 23 23 24 24 24
9 8 7 8 7 7 6 5 5 6 5 5 6 7 7 7 8 6 3 2 1 2 1 1 1 1 1 1 2 3 2 3 5 8 9 11 13 15 20 24 25 25 26
9 8 7 7 7 6 6 5 5 5 4 5 6 6 6 6 7 6 3 3 4 3 2 1 2 1 1 2 3 3 3 3 4 6 6 9 12 14 16 20 24 26 27
7 8 7 7 6 6 5 5 4 3 2 4 4 5 6 6 7 7 4 4 4 3 2 2 1 1 1 2 3 4 4 4 3 4 5 6 8 12 14 16 17 21 26
7 7 6 7 6 5 4 4 3 2 2 2 2 4 5 6 6 6 3 3 3 3 2 1 1 2 2 2 3 4 5 4 3 3 2 2 4 8 10 12 12 13 15
7 6 6 6 6 5 3 3 3 3 2 2 2 3 4 5 5 4 4 3 3 3 3 3 2 1 2 2 1 2 4 5 4 3 2 1 3 3 5 8 10 12 14
8 7 7 6 6 5 4 3 4 4 4 3 2 1 1 2 3 4 4 4 3 3 2 1 2 2 1 2 1 2 1 2 4 4 3 3 4 3 3 5 7 11 13
8 7 7 7 6 5 5 5 5 4 3 1 1 0 1 2 1 2 4 4 3 3 2 1 2 1 2 1 2 0 2 3 2 4 4 4 5 4 5 4 5 7 11
9 9 8 7 6 5 6 6 7 5 3 2 2 3 3 3 3 3 4 4 3 2 2 1 1 0 1 2 1 1 1 1 2 2 4 5 5 4 4 4 4 6 9
9 9 8 8 6 6 7 7 7 7 5 4 4 3 2 2 3 3 5 4 3 1 1 0 0 1 1 1 2 2 2 1 2 2 3 4 5 5 5 4 3 4 7
Wind_Direction
149 153 145 137 132 128 124 120 117 115 112 111 109 109 108 109 110 110 110 110 109 107 106 104 102 101 100 101 102 104 107 110 111 112 111 112 114 117 116 114 112 111 113
146 150 145 139 135 131 128 125 123 120 119 117 116 115 114 114 114 114 114 113 111 109 108 107 105 104 102 102 104 105 108 111 113 113 112 112 116 119 118 117 116 119 117
140 145 143 140 137 135 132 130 128 126 124 123 122 121 120 119 119 118 117 116 114 113 112 110 108 108 106 105 105 105 108 112 115 113 109 109 115 122 121 120 120 120 118
137 140 142 141 139 138 136 134 133 132 130 129 128 127 125 125 124 124 122 120 118 117 116 115 112 111 109 107 104 103 106 112 117 118 119 116 117 122 123 123 123 123 121
132 137 143 141 140 139 138 136 136 136 135 135 134 133 132 131 130 129 127 125 123 121 120 119 117 115 112 107 104 102 101 106 112 120 129 125 124 128 128 127 127 127 126
127 134 141 140 139 139 140 139 139 139 139 140 140 139 138 137 136 135 134 132 130 128 126 125 123 121 118 112 106 99 89 88 97 124 134 135 134 135 134 134 132 132 131
129 133 139 139 139 139 139 141 142 142 142 143 142 143 143 143 143 142 141 141 139 136 134 133 131 131 128 122 111 91 69 70 96 133 143 146 145 143 140 140 139 138 137
135 133 138 139 139 140 141 142 143 143 144 145 145 146 147 148 148 147 147 147 147 146 145 146 146 144 145 140 129 95 51 64 97 137 153 156 154 150 148 146 146 144 144
133 132 134 139 140 141 141 142 143 145 147 148 150 152 153 154 155 155 155 156 157 157 159 160 163 163 165 170 176 171 32 59 95 136 161 165 164 159 156 155 154 153 152
131 132 132 135 137 139 143 145 147 149 152 153 154 157 158 159 162 165 166 169 172 173 174 175 177 181 183 193 213 232 268 47 131 167 171 180 176 169 165 164 163 162 161
138 141 139 138 140 141 145 151 151 153 157 156 158 162 161 161 168 176 181 184 185 185 187 189 192 195 197 211 230 241 255 242 201 189 188 191 186 179 174 172 170 170 170
151 156 154 150 149 151 152 148 151 154 158 156 157 159 158 169 183 188 196 196 195 194 196 199 201 199 205 223 241 248 242 244 230 203 203 199 192 187 182 180 179 178 177
157 160 159 160 160 158 145 149 150 151 157 162 163 163 156 152 155 165 175 196 205 200 198 202 204 207 210 220 232 240 236 240 240 227 219 205 199 195 189 187 187 185 183
149 149 153 155 147 142 135 145 150 150 153 156 157 157 145 129 123 136 145 164 182 184 191 191 197 216 221 230 233 232 231 228 233 230 224 215 208 202 196 194 194 192 190
137 141 146 136 127 120 120 134 133 137 145 149 143 147 144 134 135 135 127 131 150 172 183 182 198 215 230 246 249 237 230 224 225 224 232 226 215 208 204 200 201 200 197
135 139 137 123 123 122 119 118 121 122 133 136 138 147 147 141 136 127 114 111 132 190 192 192 200 204 228 241 262 253 243 234 225 223 228 226 222 216 212 209 207 206 204
140 134 131 122 118 120 120 122 120 129 133 132 139 142 137 130 127 122 117 119 147 174 162 160 120 85 280 288 278 272 258 247 230 230 231 229 229 224 220 217 214 212 210
135 129 130 129 122 118 118 117 121 135 138 139 138 136 134 133 129 123 123 119 108 89 93 109 74 58 354 315 291 283 275 268 252 242 236 234 231 229 228 226 223 219 217
127 123 119 126 124 119 114 108 115 124 133 138 135 132 130 131 130 126 119 107 92 77 56 56 69 88 350 317 294 283 281 269 256 255 243 237 232 229 229 232 230 227 225
127 124 128 129 123 118 107 101 94 91 105 127 136 139 136 131 128 119 109 96 92 80 53 38 39 21 314 305 312 315 297 281 270 257 250 244 237 234 231 232 234 236 233
127 131 137 134 133 125 114 110 110 112 110 112 132 138 136 129 122 116 109 99 93 86 72 47 42 8 344 3 15 335 320 308 295 274 265 263 255 249 238 233 230 231 237
148 145 140 138 137 135 131 129 132 125 106 104 86 88 103 114 125 129 128 126 109 89 55 41 54 36 343 24 70 9 340 336 334 327 322 305 294 276 256 244 235 231 234
154 156 152 148 141 138 127 103 85 70 65 55 47 40 40 119 140 146 150 138 126 115 100 61 81 106 348 330 99 141 105 291 312 322 333 342 329 305 284 269 253 241 236
164 159 147 148 142 137 123 114 115 115 116 143 167 63 358 24 93 135 140 133 125 120 111 80 103 121 126 312 325 275 192 196 236 310 320 328 328 316 305 294 276 261 248
161 154 153 149 145 142 130 126 119 115 126 117 80 62 39 25 46 85 110 117 117 117 117 94 64 57 165 196 239 280 307 281 187 201 292 318 326 313 306 295 285 279 269
162 156 151 148 148 142 132 128 129 129 123 104 83 75 48 27 26 59 92 99 111 121 153 219 262 281 254 237 232 226 217 237 253 224 257 291 300 298 300 293 291 284 283
Height
1533 1535 1538 1539 1541 1542 1543 1545 1546 1547 1548 1550 1551 1552 1553 1554 1555 1556 1557 1558 1559 1560 1561 1561 1562 1562 1562 1563 1563 1564 1564 1565 1565 1565 1566 1566 1567 1568 1569 1569 1570 1570 1571
1531 1535 1539 1540 1542 1543 1544 1546 1547 1548 1550 1551 1552 1553 1554 1555 1556 1557 1558 1559 1560 1561 1562 1562 1563 1563 1564 1564 1565 1565 1566 1566 1567 1567 1568 1568 1569 1570 1570 1571 1572 1572 1573
1531 1535 1539 1541 1542 1544 1545 1547 1548 1549 1551 1552 1553 1554 1555 1556 1557 1558 1559 1560 1561 1562 1563 1563 1564 1564 1565 1565 1566 1567 1567 1568 1569 1569 1570 1570 1571 1572 1572 1573 1574 1574 1575
1532 1536 1539 1541 1543 1545 1546 1548 1549 1550 1552 1553 1554 1555 1556 1557 1558 1559 1560 1561 1562 1563 1564 1564 1565 1566 1566 1567 1567 1568 1569 1569 1570 1571 1571 1572 1573 1573 1574 1574 1575 1576 1577
1533 1537 1540 1542 1544 1545 1547 1548 1550 1551 1552 1554 1555 1556 1557 1558 1559 1560 1561 1562 1563 1564 1564 1565 1566 1567 1568 1568 1569 1569 1570 1571 1571 1572 1573 1574 1574 1575 1576 1576 1577 1578 1579
1535 1538 1540 1543 1545 1546 1548 1549 1551 1552 1553 1555 1556 1557 1558 1559 1559 1560 1561 1562 1563 1564 1565 1566 1567 1568 1569 1569 1570 1571 1571 1572 1572 1573 1574 1575 1576 1576 1577 1578 1578 1579 1580
1536 1539 1541 1544 1545 1547 1548 1550 1552 1553 1554 1555 1556 1558 1558 1559 1560 1561 1562 1563 1564 1565 1566 1567 1568 1569 1570 1570 1571 1572 1572 1573 1573 1574 1575 1576 1577 1577 1578 1579 1580 1580 1581
1537 1540 1542 1544 1546 1548 1549 1551 1552 1553 1555 1556 1557 1558 1559 1560 1561 1562 1563 1564 1564 1565 1566 1567 1568 1569 1570 1571 1572 1573 1573 1574 1574 1575 1576 1577 1578 1578 1579 1580 1581 1581 1582
1538 1541 1543 1545 1546 1548 1550 1551 1553 1554 1555 1556 1557 1559 1560 1561 1562 1562 1563 1564 1565 1566 1566 1567 1568 1569 1570 1571 1572 1573 1574 1574 1574 1575 1576 1577 1578 1579 1580 1581 1581 1582 1583
1540 1542 1543 1545 1547 1548 1550 1552 1553 1554 1556 1557 1558 1559 1560 1561 1562 1563 1564 1564 1565 1566 1567 1567 1568 1569 1570 1571 1572 1573 1574 1574 1575 1575 1576 1577 1578 1579 1580 1581 1582 1583 1584
1540 1542 1544 1545 1546 1548 1550 1551 1553 1554 1556 1556 1557 1559 1560 1561 1561 1562 1563 1564 1565 1566 1566 1567 1568 1569 1570 1571 1572 1572 1573 1574 1574 1575 1576 1577 1578 1579 1580 1581 1582 1583 1584
1540 1542 1544 1545 1546 1547 1549 1551 1552 1554 1555 1556 1557 1559 1560 1561 1561 1562 1563 1564 1565 1565 1566 1566 1567 1568 1569 1570 1570 1571 1572 1572 1573 1574 1575 1576 1577 1578 1580 1580 1581 1582 1584
1539 1541 1543 1545 1546 1547 1548 1550 1551 1553 1555 1556 1557 1558 1559 1560 1561 1561 1562 1563 1564 1564 1565 1565 1566 1567 1567 1568 1569 1570 1570 1571 1572 1572 1574 1575 1576 1577 1578 1579 1581 1582 1583
1538 1540 1543 1544 1545 1546 1548 1549 1551 1552 1554 1555 1556 1557 1558 1559 1560 1561 1561 1562 1563 1563 1564 1565 1565 1565 1566 1566 1567 1568 1568 1569 1570 1570 1572 1573 1574 1575 1577 1578 1579 1580 1582
1537 1540 1543 1544 1544 1545 1547 1549 1550 1552 1553 1554 1555 1556 1557 1558 1559 1560 1560 1561 1561 1562 1562 1563 1563 1564 1564 1564 1565 1565 1566 1567 1567 1568 1569 1570 1572 1573 1574 1576 1577 1578 1580
1538 1540 1543 1544 1545 1546 1547 1549 1550 1551 1552 1554 1555 1556 1557 1557 1558 1558 1559 1559 1560 1561 1561 1561 1561 1561 1561 1562 1562 1562 1563 1564 1565 1565 1567 1568 1569 1570 1571 1573 1574 1576 1577
1538 1541 1542 1544 1545 1546 1547 1549 1550 1551 1552 1554 1555 1555 1556 1556 1557 1557 1557 1558 1558 1559 1559 1559 1559 1559 1559 1559 1559 1560 1560 1561 1561 1562 1563 1565 1565 1566 1568 1569 1570 1572 1574
1538 1541 1543 1544 1545 1546 1547 1548 1550 1551 1552 1553 1554 1555 1555 1555 1556 1556 1556 1557 1557 1557 1557 1557 1557 1556 1556 1556 1556 1557 1557 1557 1557 1558 1559 1560 1561 1562 1564 1565 1567 1568 1570
1538 1540 1542 1544 1545 1546 1547 1549 1550 1550 1551 1552 1553 1554 1554 1554 1555 1555 1555 1556 1556 1556 1556 1555 1555 1555 1554 1554 1554 1554 1553 1554 1554 1554 1555 1556 1557 1558 1559 1561 1562 1564 1565
1538 1540 1542 1544 1545 1546 1547 1548 1550 1550 1551 1552 1553 1553 1553 1553 1554 1554 1554 1554 1554 1554 1554 1554 1553 1553 1553 1552 1551 1551 1550 1550 1550 1551 1551 1552 1553 1554 1555 1556 1557 1559 1560
1538 1540 1542 1543 1544 1546 1547 1548 1549 1550 1551 1552 1552 1553 1552 1552 1553 1553 1553 1553 1553 1553 1552 1552 1551 1551 1551 1550 1549 1548 1548 1548 1547 1547 1548 1548 1549 1550 1551 1552 1553 1554 1555
1538 1540 1541 1543 1544 1546 1547 1548 1549 1550 1551 1551 1552 1552 1552 1551 1552 1552 1552 1551 1551 1551 1550 1550 1549 1549 1549 1548 1548 1547 1546 1546 1545 1545 1545 1545 1546 1546 1547 1547 1548 1549 1550
1538 1539 1541 1542 1544 1545 1547 1548 1549 1549 1550 1551 1551 1551 1551 1551 1550 1550 1550 1550 1549 1549 1548 1548 1547 1547 1547 1547 1547 1546 1545 1543 1543 1543 1542 1543 1543 1543 1543 1544 1544 1544 1545
1537 1539 1541 1542 1544 1545 1546 1547 1548 1548 1549 1550 1550 1550 1549 1549 1549 1548 1548 1548 1547 1547 1546 1546 1545 1544 1544 1544 1544 1544 1544 1543 1543 1541 1540 1541 1541 1540 1540 1540 1540 1541 1541
1537 1539 1540 1542 1543 1544 1545 1546 1547 1547 1548 1548 1548 1548 1547 1547 1547 1546 1546 1546 1545 1545 1544 1543 1542 1542 1541 1541 1541 1541 1541 1541 1540 1540 1537 1537 1537 1538 1537 1537 1536 1537 1537
1537 1538 1540 1541 1542 1543 1544 1545 1545 1546 1546 1546 1546 1546 1545 1545 1545 1544 1544 1543 1543 1542 1541 1540 1539 1539 1538 1538 1538 1537 1537 1537 1537 1537 1535 1534 1533 1533 1534 1534 1534 1533 1533